Location: Home
(42.5358°N, 72.7383°W)
Time: 00:00:23
(UTC-04:00)

DELTA 1 DEB - Pass Details

Date: 28 June 2022
Orbit: 600 x 774 km, 98.5° (Epoch: 16 August)

Event Time Altitude Azimuth Distance (km) Brightness Sun altitude
Exits shadow 21:37:21 11° 113° (ESE) 2,248 ? -10.1°
Maximum altitude 21:41:04 23° 64° (ENE) 1,587 ? -10.6°
Drops below altitude 10° 21:44:56 10° 14° (NNE) 2,276 ? -11.1°
Sets 21:47:36 0° 0° (N) 3,180 ? -11.4°
